Location: Icefog Observatory
(64.9000°N, 147.4000°W)
Time: 21:11:10
(UTC-08:00)

YUBILEINY - Visible Passes

Search period start: 18 September 2024 00:00
Search period end: 28 September 2024 00:00
Orbit: 1478 x 1508 km, 82.5° (Epoch: 18 September)

Date Brightness Start Highest point End Pass type
(mag) Time Alt. Az. Time Alt. Az. Time Alt. Az.
18 Sep ? 00:42:37 10° ENE 00:45:15 12° NE 00:47:55 10° NNE visible
18 Sep ? 02:31:46 10° SE 02:38:59 30° ENE 02:46:14 10° NNE visible
18 Sep ? 04:25:45 10° S 04:34:31 72° E 04:43:21 10° NNE visible
18 Sep ? 06:23:18 10° SW 06:31:55 53° NW 06:40:36 10° NNE visible
19 Sep ? 01:44:13 10° ESE 01:50:17 21° ENE 01:56:21 10° NNE visible
19 Sep ? 03:36:53 11° SSE 03:45:08 52° E 03:53:36 10° NNE visible
19 Sep ? 05:33:00 10° SSW 05:41:51 70° WNW 05:50:44 10° NNE visible
20 Sep ? 00:57:25 10° E 01:01:49 15° NE 01:06:14 10° NNE visible
20 Sep ? 02:48:11 10° SE 02:56:01 38° ENE 03:03:52 10° NNE visible
20 Sep ? 04:44:01 14° SSW 04:52:02 88° ESE 05:00:57 10° NNE visible
21 Sep ? 00:12:14 10° NE 00:13:35 10° NE 00:14:56 10° NNE visible
21 Sep ? 02:00:13 10° ESE 02:07:08 27° ENE 02:14:04 10° NNE visible
21 Sep ? 03:55:11 16° S 04:02:28 66° E 04:11:13 10° NNE visible
21 Sep ? 05:51:07 11° SW 05:59:39 58° WNW 06:08:25 10° NNE visible
22 Sep ? 01:12:52 10° E 01:18:30 19° ENE 01:24:08 10° NNE visible
22 Sep ? 03:06:20 16° SSE 03:13:09 47° E 03:21:28 10° NNE visible
22 Sep ? 05:02:16 16° SSW 05:09:39 76° WNW 05:18:35 10° NNE visible
23 Sep ? 00:26:20 10° ENE 00:30:06 13° NE 00:33:52 10° NNE visible
23 Sep ? 02:17:28 13° SE 02:24:06 34° ENE 02:31:43 10° NNE visible
23 Sep ? 04:13:23 21° S 04:19:55 81° ESE 04:28:49 10° NNE visible
23 Sep ? 06:09:19 11° WSW 06:17:35 48° NW 06:26:08 10° NNE visible
24 Sep ? 01:28:43 10° ESE 01:35:18 24° ENE 01:41:53 10° NNE visible
24 Sep ? 03:24:30 22° SSE 03:30:26 60° E 03:39:04 10° NNE visible
24 Sep ? 05:20:25 18° SW 05:27:24 63° WNW 05:36:14 10° NNE visible
25 Sep ? 00:41:34 10° E 00:46:44 17° NE 00:51:54 10° NNE visible
25 Sep ? 02:35:35 20° SE 02:41:11 43° E 02:49:19 10° NNE visible
25 Sep ? 04:31:30 24° SSW 04:37:29 83° WNW 04:46:26 10° NNE visible
25 Sep ? 06:27:25 10° WSW 06:35:38 40° NW 06:43:54 10° NNE visible
25 Sep ? 23:55:26 10° ENE 23:58:25 12° NE 00:01:23 10° NNE visible
26 Sep ? 01:46:39 16° ESE 01:52:13 31° ENE 01:59:33 10° NNE visible
26 Sep ? 03:42:34 28° S 03:47:50 75° E 03:56:40 10° NNE visible
26 Sep ? 05:38:29 17° SW 05:45:17 52° NW 05:53:55 10° NNE visible
27 Sep ? 00:57:41 11° ESE 01:03:28 22° ENE 01:09:41 10° NNE visible
27 Sep ? 02:53:37 28° SSE 02:58:25 54° E 03:06:56 10° NNE visible
27 Sep ? 04:49:32 25° SW 04:55:11 68° WNW 05:04:04 10° NNE visible
27 Sep ? 06:45:51 10° W 06:53:47 35° NW 07:01:45 10° NNE visible
